Orbital Elements at Epoch 2459200.5 (2020-Dec-17.0) TDB
Reference: JPL 28 (heliocentric ecliptic J2000)
Element | Value | Uncertainty (1-sigma) | Units |
e | .05871268159585226 | 6.155e-08 | |
a | 5.118209393881498 | 8.9596e-08 | au |
q | 4.817705595397634 | 3.7164e-07 | au |
i | 5.74550380593469 | 6.811e-06 | deg |
node | 358.1351892379408 | 3.6253e-05 | deg |
peri | 37.26073290890502 | 5.7943e-05 | deg |
M | 332.5701179607642 | 4.4816e-05 | deg |
tp | 2459522.752978721937 (2021-Nov-04.25297872) | 0.00052691 | TDB |
period | 4229.368255173479 11.58 | 0.00011106 3.041e-07 | d yr |
n | .08511909540145579 | 2.2351e-09 | deg/d |
Q | 5.418713192365363 | 9.4857e-08 | au |
|
| | Orbit Determination Parameters
Additional Information
|